Weather Roundup
Issued by NWS Springfield, MO

Home | Current Version | Previous Version | Text Only | Print | Product List | Glossary On
Versions: 1 2 3 4 5 6 7 8 9 10 11 12 13 14 15 16 17 18 19 20 21 22 23 24 25 26 27 28 29 30 31 32 33 34 35 36 37 38 39 40 41 42 43 44 45 46 47 48 49 50
000
NZUS99 KSGF 191307
HRRSGF

HOURLY WEATHER
NATIONAL WEATHER SERVICE SPRINGFIELD MO
700 AM CST FRI JAN 19 2018

......SGF CWA......

CITY           SKY/WX    TMP DP  RH WIND       PRES   REMARKS
SPRINGFIELD    CLOUDY    27  13  55 S9        30.07F WCI  18
JOPLIN         CLOUDY    32  17  54 S17G24    30.07F WCI  21
WEST PLAINS    CLOUDY    27  12  53 S5        30.14S WCI  22
ROLLA          CLOUDY    28  13  53 S16       30.07S WCI  16
OSAGE BEACH    CLOUDY    32  15  49 SW13G22   30.07S WCI  22
BRANSON        PTCLDY    32   9  37 S9        30.12F WCI  24

......SURROUNDING SGF CWA......

CITY           SKY/WX    TMP DP  RH WIND       PRES   REMARKS
CHANUTE        CLOUDY    29  16  58 S16       30.01F WCI  17
PARSONS        CLOUDY    28  17  63 S8        30.05F WCI  20
COFFEYVILLE    CLOUDY    29  17  61 S12       30.06F WCI  19
EMPORIA        CLOUDY    28  17  63 S12       29.93F WCI  18
GROVE OK       CLOUDY    32  19  59 S8        30.12F WCI  25
ROGERS AR      CLOUDY    30  14  51 S13       30.12F WCI  20
SILOAM SPRINGS CLOUDY    26  15  63 MISG        N/A
HARRISON AR    CLOUDY    28  11  48 SE6       30.13R WCI  22
NEAR YELLVILLE CLOUDY    27  13  55 S3        30.18R

......KANSAS AND MISSOURI......

CITY           SKY/WX    TMP DP  RH WIND       PRES   REMARKS
KANSAS CTY INT CLOUDY    31  17  56 S14       29.93S WCI  21
DOWNTOWN KC    CLOUDY    33  17  51 S8        29.95F WCI  26
COLUMBIA       CLOUDY    31  15  52 S13       30.03S WCI  21
SEDALIA        CLOUDY    33  18  53 SW16      30.02R WCI  23
ST JOSEPH      CLOUDY    32  22  66 S12       29.92R WCI  23
ST LOUIS       CLOUDY    27  14  58 SE7       30.08F WCI  19
SPIRIT OF STL  CLOUDY    33  12  41 SW6       30.07F WCI  28
KIRKSVILLE     CLEAR     30  20  66 SW15      29.93S WCI  19
WICHITA        CLOUDY    27  16  63 S12       29.95F WCI  17
TOPEKA         PTCLDY    31  20  63 S7        29.93S WCI  24
OLATHE         CLOUDY    28  17  63 S9        29.96F WCI  19

......TENNESSEE......

CITY           SKY/WX    TMP DP  RH WIND       PRES   REMARKS
MEMPHIS        FAIR      25  17  72 S6        30.30S WCI  18
NASHVILLE      FAIR      19  12  74 S5        30.32S WCI  12

......ARKANSAS.......

CITY           SKY/WX    TMP DP  RH WIND       PRES   REMARKS
FAYETTEVILLE   CLOUDY    30  13  49 S7        30.14S WCI  23
FT SMITH       CLOUDY    22  14  71 CALM      30.20F
LITTLE ROCK    FAIR      25  16  68 S5        30.27F WCI  19

......OKLAHOMA.......

CITY           SKY/WX    TMP DP  RH WIND       PRES   REMARKS
TULSA          CLOUDY    30  17  58 S12       30.10F WCI  20
PONCA CITY     CLOUDY    28  15  58 S9        30.02F WCI  19
MCALESTER      CLOUDY    31  18  58 S9        30.16F WCI  23
OKLAHOMA CITY  CLOUDY    25  18  74 S7        30.07R WCI  17

......IOWA............

CITY           SKY/WX    TMP DP  RH WIND       PRES   REMARKS
DES MOINES     CLOUDY    34  23  64 SW10      29.80F WCI  26
QUAD CITIES    FAIR      30  20  66 SW10      29.88F WCI  21

......ILLINOIS........

CITY           SKY/WX    TMP DP  RH WIND       PRES   REMARKS
QUINCY         CLOUDY    30  16  56 SW15      29.97F WCI  19
CHICAGO        FAIR      29  19  66 SW16      29.89S WCI  17




USA.gov is the U.S. government's official web portal to all federal, state and local government web resources and services.